Regional Weather Roundup
Issued by NWS Upton, NY

Home | Current Version | Previous Version | Text Only | Print | Product List | Glossary On
Versions: 1 2 3 4 5 6 7 8 9 10 11 12 13 14 15 16 17 18 19 20 21 22 23 24 25 26 27 28 29 30 31 32 33 34 35 36 37 38 39 40 41 42 43 44 45 46 47 48 49 50
000
ASUS41 KOKX 240009
RWROKX

REGIONAL WEATHER ROUNDUP
NATIONAL WEATHER SERVICE NEW YORK NY
800 PM EDT SUN JUL 23 2017

NOTE: "FAIR" INDICATES FEW OR NO CLOUDS BELOW 12,000 FEET WITH NO
SIGNIFICANT WEATHER AND/OR OBSTRUCTIONS TO VISIBILITY.

NYZ071-072-176-178-NJZ106-104-240100-
NEW YORK CITY METRO AREA

CITY           SKY/WX    TMP DP  RH WIND       PRES   REMARKS
Central Park   MOCLDY    75  67  76 VRB3      29.87R
Bronx Bot Gard   N/A     73  64  73 E8        29.86R
LaGuardia APRT CLOUDY    78  67  68 SE12      29.84R
Kennedy INTL   MOCLDY    74  69  85 E13       29.85S
Breezy Point     N/A     72 N/A N/A SE13        N/A
Newark/Liberty MOCLDY    75  67  76 SE9       29.84R
Teterboro      CLOUDY    77  66  68 SE6       29.83R
$$

NYZ177-179-078>081-240100-
LONG ISLAND NEW YORK

CITY           SKY/WX    TMP DP  RH WIND       PRES   REMARKS
Jones Beach      N/A     72 N/A N/A E10G16      N/A
Matinecock PT    N/A     73 N/A N/A E6          N/A
Farmingdale    CLOUDY    73  67  81 SE10      29.85S
MacArthur/ISP  CLOUDY    72  67  84 E8        29.85S
Shirley        CLOUDY    72  66  81 E6        29.87R
Mt Sinai Harb    N/A    N/A N/A N/A SE6         N/A
Westhampton    CLOUDY    70  62  76 E8        29.86R
East Hampton   CLOUDY    69  61  77 E8        29.88R
Montauk          N/A     69  61  75 VRB5      29.90R
$$

NYZ052-065-067-240100-
HUDSON VALLEY

CITY           SKY/WX    TMP DP  RH WIND       PRES   REMARKS
White Plains   MOCLDY    73  64  73 E5        29.86R
Larchmont Harb   N/A     73 N/A N/A E9          N/A
Croton O-T Hud   N/A     73 N/A N/A E5          N/A
Newburgh       CLOUDY    75  72  88 E9        29.86R
Montgomery     CLOUDY    74  69  85 SE3       29.83S
Poughkeepsie   CLOUDY    74  65  73 SE7       29.83R
Albany         CLOUDY    76  63  64 CALM      29.82S
$$

NJZ001-105-106-008-010-013-015-019>022-104-240100-
NEW JERSEY

CITY           SKY/WX    TMP DP  RH WIND       PRES   REMARKS
Newark/Liberty MOCLDY    75  67  76 SE9       29.84R
Teterboro      CLOUDY    77  66  68 SE6       29.83R
Caldwell       CLOUDY    75  50  41 S8        29.85R
Somerville     MOCLDY    75  69  81 CALM      29.81R
Linden         MOCLDY    74  67  78 SE7       29.84R
Perth Amboy      N/A     73 N/A N/A E16         N/A
Sussex         CLOUDY    75  68  78 SE8       29.83R
Andover          N/A     73  65  75 CALM      29.83S
Trenton        CLOUDY    76  66  71 SE15      29.82R
Millville      MOCLDY    75  75 100 E7        29.80S
Atlantic City  CLOUDY    75  73  93 E7        29.81S
Wrightstown    MOCLDY    74  67  79 S6        29.82R
Toms River     MOCLDY    75  67  76 SE7       29.84S
Belmar         CLOUDY    74  66  76 E10       29.85S
$$

PAZ047>061-062-071-240100-
EASTERN PENNSYLVANIA

CITY           SKY/WX    TMP DP  RH WIND       PRES   REMARKS
Philadelphia   TSTM      74  70  87 E13       29.81R FOG
Allentown      MOCLDY    79  66  64 SE12      29.80S
Scranton       PTCLDY    77  67  71 SE8       29.79S
$$

CTZ002-004>006-009-010-012-RIZ004-006-007-MAZ004-011-015-240100-
SOUTHERN NEW ENGLAND
 IN CT

CITY           SKY/WX    TMP DP  RH WIND       PRES   REMARKS
Bradley INTL   MOCLDY    76  60  57 SE13      29.86R
Hartford       CLOUDY    75  57  53 S6        29.86R
Danbury        CLOUDY    71  63  75 SE7       29.88R
Wtrbury/Oxford CLOUDY    70  57  64 SE8       29.87S
Bridgeport     CLOUDY    74  64  71 E12       29.87R
Meriden        CLOUDY    71  60  68 S9        29.88R
New Haven      CLOUDY    73  61  65 E10       29.87R
Chester        FAIR      70  57  64 SE7       29.89R
Groton         CLOUDY    69  59  70 E10       29.88R
Wilimantic     MOCLDY    74  56  53 VRB3      29.89R

 IN RI

CITY           SKY/WX    TMP DP  RH WIND       PRES   REMARKS
Providence     MOCLDY    70  56  61 E8        29.90R
Block Island   PTCLDY    68  60  75 E9        29.89F
Westerly       CLOUDY    71  59  65 E8        29.89S
 IN MA

CITY           SKY/WX    TMP DP  RH WIND       PRES   REMARKS
Boston         CLOUDY    65  54  67 E9        29.92R
Worcester      PTCLDY    67  48  50 E6        29.92R
Westfield      CLOUDY    75  63  66 SE3       29.85S
Provincetown   CLOUDY    65  57  75 E7        29.92S
Nantucket      PTCLDY    65  59  81 NE9       29.90R
$$

ANZ330-335-338-340-345-350-353-355-240100-
COASTAL MARINE OBSERVATIONS


STATION/POSITION TIME  SKY/WX   TEMP    WIND        PRES    VSBY  WAVE
                                AIR SEA DIR/SP/G                  HT/PER
                 (UTC)          (F)     (DEG/KT/KT) (MB)    (MI)  (FT/S)
NY HARB ENTRANCE 2250            74 76  100/ 16/ 17 1009.3          4/ 7
20 S FIRE ISLAND 2350            74 77  100/ 14/ 17 1009.8          4/ 7
GREAT SOUTH BAY  2315            73 82   90/ 16/ 19   N/A
23 SSW MONTAUK P 2250            72 74              1011.2          4/ 7
15 E BARNEGAT LI 2330               76                N/A           5/ 7
HUDSON CANYON    2250            74 78   90/ 14/ 16 1009.3          4/ 7
KINGS POINT      2330            74 73  180/  4/  7 1010.2
EXECUTION ROCKS  2345            74     120/  8/ 10   N/A
CENTRAL LI SOUND NOT AVBL
EASTERN LI SOUND NOT AVBL
ROBBINS REEF     2330                   130/ 15/ 18 1010.8
$$


>>>>>>>>>>>>>>>>>>>>>>>>>>>> KEY <<<<<<<<<<<<<<<<<<<<<<<<<<<
>                                                          <
>     SKY/WX - Sky Condition/Present Weather               <
>     TMP    - Temperature in Fahrenheit                   <
>     DP     - Dew Point in Fahrenheit                     <
>     RH     - Relative Humidity in Percent                <
>     WIND   - Direction (from) and Speed in MPH           <
>     PRES   - Mean Sea Level Pressure (inches of Hg)      <
>     WCI    - Wind Chill Index                            <
>     VSB    - VISIBILITY IN MILES                         <
>     HX     - HEAT INDEX                                  <
>     TC     - TEMPERATURE IN CELSIUS                      <
>     VRB    - VARIABLE WIND DIRECTION                     <
>                                                          <
>>>>>>>>>>>>>>>>>>>>>>>>>>>> KEY <<<<<<<<<<<<<<<<<<<<<<<<<<<



USA.gov is the U.S. government's official web portal to all federal, state and local government web resources and services.